Torna al catalogo

STARLINK-5137

AttivoComunicazioniVLEO
NORAD 53975·PAYLOAD·🇺🇸 United States

Lanciato Oct 5, 2022 da Vandenberg Space Force Base

Loading…

Prossimi Passaggi (prossime 24 ore)

TLE

AggiornatoSource: CelesTrak SupGP

Epoca: Sep 15, 2026, 01:50 UTC

1 53975C 22125M   26258.07687500 -.00002143  00000+0 -13443-3 0  2584
2 53975  53.1573  87.8755 0001647  90.5461 121.0637 15.08831254    16

Traccia STARLINK-5137 in tempo reale con AllMySat

Download on the App Store